[[{"header":{"parameterUnit":"m.s-1","parameterCategory":1,"la1":30.2991,"la2":30.254,"lo1":-89.0895,"lo2":-89.0444,"dy":0.0017,"dx":0.0017,"nx":28,"ny":28,"refTime":"2025-02-28T09:00:00:Z","depth":0,"parameterNumber":2,"parameterNumberName":"U-component_of_WINDS"},"data":[0,0,0,0,0,0,0,0,0,0,0,0,0,0,0,0,0,0,0,0,0,0,0,0,0,0,0,0,0,0,0,0,0,0,0,0,0,0,0,0,0,0,0,0,0,0,0,0,0,0,0,0,0,0,0,0,0,0,1.3704,1.3705,0,1.3751,1.3752,1.3752,1.3752,1.3751,1.3751,1.375,1.3801,1.3803,1.3805,0,0,0,0,0,0,0,0,0,0,0,0,0,1.3616,1.3618,1.3704,1.3705,1.3705,1.3751,1.3752,1.3753,1.3752,1.3751,1.3751,1.375,1.38,1.3802,1.3805,0,0,0,0,0,0,0,0,0,0,0,0,0,1.3658,1.3618,1.3704,1.371,1.3711,1.3751,1.3752,1.3753,1.3752,1.3751,1.375,1.3749,1.3799,1.3802,1.3805,1.3842,0,0,1.3814,1.3815,0,0,0,0,0,0,0,0,1.3656,1.3661,1.3709,1.371,1.3711,1.3745,1.374,1.3783,1.3752,1.3737,1.375,1.3749,1.3783,1.3787,1.3798,1.3844,1.3847,1.3814,1.3816,1.3817,1.3818,0,0,0,0,0,0,0,1.3653,1.3659,1.3723,1.371,1.3711,1.3712,1.3717,1.3748,1.3765,1.3738,1.3738,1.3744,1.3784,1.3795,1.38,1.3847,1.3814,1.3817,1.3819,1.382,1.3928,1.393,0,0,0,0,0,0,1.3648,1.3657,1.3721,1.3724,1.368,1.3714,1.372,1.3735,1.3764,1.3768,1.3744,1.3743,1.3791,1.3796,1.3801,1.3848,1.3817,1.382,1.3822,1.3927,1.3929,1.393,0,0,0,0,0,0,1.3646,1.3654,1.3719,1.3691,1.3699,1.3717,1.3734,1.3736,1.3748,1.3769,1.3772,1.3753,1.379,1.3797,1.3832,1.385,1.3821,1.3824,1.3926,1.3928,1.3929,1.3941,0,0,0,0,0,0,1.3644,1.3653,1.3667,1.3691,1.37,1.3749,1.3735,1.3738,1.3753,1.3752,1.3778,1.3782,1.379,1.3828,1.3835,1.3853,1.3826,1.3925,1.3927,1.3929,1.3939,1.3943,1.3946,0,0,0,0,0,1.364,1.3668,1.3667,1.3675,1.3718,1.375,1.3755,1.3764,1.3754,1.3769,1.3782,1.3781,1.3846,1.3832,1.384,1.3859,1.3923,1.3926,1.3929,1.3937,1.3942,1.3946,0,0,0,0,0,0,1.3646,1.3671,1.3671,1.3707,1.3726,1.3749,1.3768,1.3768,1.3791,1.3789,1.3799,1.3805,1.3841,1.3853,1.3836,1.3897,1.3884,1.3888,1.3888,1.3892,1.3896,1.3893,1.3829,0,0,0,0,0,1.3651,1.3674,1.3695,1.3725,1.3735,1.375,1.3764,1.3769,1.379,1.3798,1.3814,1.3835,1.386,1.3877,1.3901,1.394,1.3947,1.3958,1.3961,1.3964,1.3968,1.3992,1.3997,1.3938,1.3938,1.3938,0,0,1.3663,1.3679,1.3693,1.3727,1.3742,1.3767,1.3757,1.3783,1.3802,1.3802,1.3837,1.3849,1.3873,1.3911,1.3928,1.3922,1.3986,1.3967,1.3969,1.3972,1.3995,1.4,1.4005,1.394,1.394,1.394,0,0,1.3696,1.3711,1.3738,1.3754,1.3777,1.3787,1.3793,1.3817,1.3825,1.386,1.3861,1.3884,1.3927,1.3945,1.3959,1.4001,1.4001,1.4008,1.4027,1.405,1.4054,1.4059,1.4075,1.4081,1.4012,1.4012,1.4012,0,1.3708,1.3744,1.3752,1.3779,1.3794,1.3795,1.3823,1.3839,1.3869,1.388,1.3873,1.3928,1.3944,1.3987,1.3997,1.4008,1.4017,1.4006,1.4053,1.4057,1.4061,1.4077,1.4083,1.4013,1.4013,1.4013,1.4013,0,1.3758,1.3784,1.3803,1.3832,1.385,1.3877,1.389,1.3907,1.391,1.3921,1.3958,1.3977,1.4006,1.4016,1.402,1.406,1.4056,1.4051,1.4038,1.4068,1.4083,1.4089,1.4014,1.4014,1.4014,1.4013,0,0,1.3797,1.383,1.3837,1.3851,1.3878,1.3898,1.3926,1.3954,1.3969,1.3991,1.4016,1.4052,1.4048,1.4065,1.407,1.409,1.4124,1.4083,1.4084,1.4091,1.4172,1.4177,1.4183,1.4124,1.4125,1.4126,1.417,0,1.3835,1.3884,1.3892,1.3936,1.396,1.3962,1.3987,1.4006,1.4017,1.4041,1.4053,1.408,1.4071,1.4082,1.4101,1.4116,1.4141,1.4112,1.4149,1.415,1.4144,1.4191,1.4196,1.4237,1.4176,1.4177,1.4178,0,1.3885,1.3908,1.3954,1.3978,1.3989,1.4011,1.4038,1.406,1.4082,1.4089,1.4108,1.4112,1.4143,1.4128,1.4171,1.4152,1.4167,1.4177,1.4179,1.4184,1.4167,1.4199,1.425,1.4257,1.4187,1.4186,1.4185,0,1.3911,1.3953,1.3986,1.3998,1.4026,1.4042,1.4055,1.4077,1.4093,1.4117,1.4129,1.4156,1.4171,1.4193,1.4205,1.4192,1.4248,1.4233,1.4256,1.4256,1.4269,1.4268,1.4325,1.4276,1.4276,1.4276,1.4276,0,1.3953,1.3982,1.3998,1.4019,1.4052,1.4061,1.4093,1.4106,1.4125,1.415,1.4152,1.4175,1.4188,1.4214,1.4223,1.4259,1.4265,1.4273,1.4275,1.4273,1.4273,1.4285,1.4283,1.4277,1.4277,1.4277,1.4276,0,1.3988,1.4,1.4037,1.4061,1.4067,1.4091,1.4112,1.4133,1.4144,1.4175,1.4183,1.42,1.423,1.4244,1.4281,1.4287,1.4328,1.4328,1.4321,1.4322,1.4344,1.4343,1.4412,1.4422,1.4365,1.4366,1.4366,0,1.4015,1.4037,1.4063,1.4079,1.4093,1.4118,1.4136,1.4146,1.4164,1.4192,1.421,1.424,1.4264,1.4313,1.433,1.4358,1.436,1.4382,1.4364,1.4362,1.4362,1.4362,1.4365,1.4386,1.4386,1.4387,1.4387,0,1.4062,1.4067,1.4091,1.4118,1.4138,1.4159,1.4181,1.4194,1.4208,1.4228,1.4258,1.4278,1.4315,1.4346,1.4376,1.439,1.4392,1.4392,1.44,1.4399,1.4394,1.4399,1.4331,1.4391,1.4391,1.439,1.439,1.439,1.4095,1.4115,1.4137,1.4164,1.4181,1.4201,1.4223,1.4236,1.4261,1.4293,1.4297,1.433,1.4354,1.4395,1.441,1.4437,1.4432,1.4442,1.4445,1.4447,1.445,1.4389,1.4442,1.4442,1.4442,1.4442,1.4442,0,1.4143,1.4158,1.4182,1.4212,1.4234,1.4232,1.4256,1.4275,1.4303,1.4325,1.4349,1.4385,1.4415,1.4434,1.4464,1.4482,1.4484,1.449,1.449,1.4494,1.4451,1.4443,1.4489,1.4489,1.4489,1.4489,1.4489,1.4489,1.4171,1.4206,1.4214,1.4258,1.4272,1.4304,1.4318,1.4337,1.4354,1.4394,1.4418,1.443,1.4452,1.4484,1.4512,1.4517,1.4529,1.4535,1.4541,1.4501,1.4496,1.4492,1.4484,1.4537,1.4538,1.4581,1.4581,1.4582]},{"header":{"parameterUnit":"m.s-1","parameterCategory":1,"la1":30.2991,"la2":30.254,"lo1":-89.0895,"lo2":-89.0444,"dy":0.0017,"dx":0.0017,"nx":28,"ny":28,"refTime":"2025-02-28T09:00:00:Z","depth":0,"parameterNumber":3,"parameterNumberName":"V-component_of_WINDS"},"data":[0,0,0,0,0,0,0,0,0,0,0,0,0,0,0,0,0,0,0,0,0,0,0,0,0,0,0,0,0,0,0,0,0,0,0,0,0,0,0,0,0,0,0,0,0,0,0,0,0,0,0,0,0,0,0,0,0,0,-3.1814,-3.1814,0,-3.1822,-3.1822,-3.1823,-3.1825,-3.1825,-3.1825,-3.1825,-3.1832,-3.1832,-3.1833,0,0,0,0,0,0,0,0,0,0,0,0,0,-3.1799,-3.18,-3.1814,-3.1814,-3.1814,-3.1822,-3.1822,-3.1823,-3.1825,-3.1825,-3.1825,-3.1825,-3.1832,-3.1832,-3.1833,0,0,0,0,0,0,0,0,0,0,0,0,0,-3.1806,-3.18,-3.1814,-3.1817,-3.1817,-3.1822,-3.1822,-3.1823,-3.1825,-3.1825,-3.1825,-3.1825,-3.1832,-3.1832,-3.1833,-3.1836,0,0,-3.1834,-3.1834,0,0,0,0,0,0,0,0,-3.1806,-3.1807,-3.1816,-3.1816,-3.1817,-3.1823,-3.182,-3.1827,-3.1825,-3.1822,-3.1825,-3.1825,-3.1829,-3.183,-3.1831,-3.1836,-3.1837,-3.1834,-3.1834,-3.1834,-3.1834,0,0,0,0,0,0,0,-3.1806,-3.1807,-3.1817,-3.1816,-3.1817,-3.1817,-3.1818,-3.1821,-3.1826,-3.1822,-3.1822,-3.1823,-3.1829,-3.1831,-3.1831,-3.1837,-3.1834,-3.1834,-3.1834,-3.1834,-3.1845,-3.1845,0,0,0,0,0,0,-3.1805,-3.1806,-3.1817,-3.1818,-3.1811,-3.1817,-3.1818,-3.1821,-3.1826,-3.1826,-3.1823,-3.1823,-3.183,-3.1831,-3.1832,-3.1836,-3.1834,-3.1834,-3.1835,-3.1845,-3.1845,-3.1845,0,0,0,0,0,0,-3.1805,-3.1806,-3.1817,-3.1812,-3.1813,-3.1817,-3.182,-3.1821,-3.1823,-3.1827,-3.1827,-3.1824,-3.183,-3.1831,-3.1835,-3.1836,-3.1835,-3.1835,-3.1844,-3.1845,-3.1845,-3.1844,0,0,0,0,0,0,-3.1804,-3.1806,-3.1807,-3.1812,-3.1814,-3.182,-3.182,-3.1821,-3.1823,-3.1824,-3.1828,-3.1828,-3.183,-3.1834,-3.1835,-3.1836,-3.1835,-3.1844,-3.1845,-3.1845,-3.1844,-3.1844,-3.1844,0,0,0,0,0,-3.1804,-3.1807,-3.1807,-3.1809,-3.1816,-3.182,-3.1821,-3.1824,-3.1824,-3.1825,-3.1827,-3.1828,-3.1836,-3.1835,-3.1836,-3.1837,-3.1844,-3.1844,-3.1845,-3.1844,-3.1844,-3.1844,0,0,0,0,0,0,-3.1802,-3.1807,-3.1808,-3.1813,-3.1816,-3.1821,-3.1823,-3.1824,-3.1827,-3.1827,-3.183,-3.183,-3.1834,-3.1836,-3.1835,-3.184,-3.184,-3.184,-3.1839,-3.1839,-3.1839,-3.1839,-3.1835,0,0,0,0,0,-3.1802,-3.1806,-3.181,-3.1814,-3.1816,-3.1819,-3.1821,-3.1823,-3.1826,-3.1827,-3.183,-3.1833,-3.1835,-3.1837,-3.184,-3.1844,-3.1845,-3.1845,-3.1845,-3.1845,-3.1846,-3.1847,-3.1847,-3.1845,-3.1845,-3.1845,0,0,-3.1803,-3.1806,-3.1808,-3.1814,-3.1816,-3.182,-3.182,-3.1824,-3.1826,-3.1828,-3.1831,-3.1833,-3.1836,-3.184,-3.1842,-3.1842,-3.1846,-3.1846,-3.1846,-3.1846,-3.1847,-3.1848,-3.1848,-3.1845,-3.1845,-3.1845,0,0,-3.1805,-3.1808,-3.1812,-3.1814,-3.1818,-3.182,-3.1821,-3.1825,-3.1827,-3.1831,-3.1832,-3.1834,-3.1839,-3.1842,-3.1843,-3.1846,-3.1847,-3.1847,-3.1847,-3.1849,-3.1849,-3.1849,-3.185,-3.185,-3.1847,-3.1847,-3.1847,0,-3.1805,-3.181,-3.1813,-3.1816,-3.1819,-3.182,-3.1824,-3.1826,-3.183,-3.1832,-3.1832,-3.1838,-3.184,-3.1844,-3.1845,-3.1846,-3.1847,-3.1846,-3.1849,-3.1849,-3.1849,-3.185,-3.185,-3.1847,-3.1847,-3.1847,-3.1847,0,-3.181,-3.1813,-3.1816,-3.182,-3.1823,-3.1826,-3.1828,-3.183,-3.1832,-3.1834,-3.1837,-3.184,-3.1843,-3.1844,-3.1845,-3.1848,-3.1848,-3.1848,-3.1848,-3.1849,-3.185,-3.185,-3.1847,-3.1847,-3.1847,-3.1847,0,0,-3.1812,-3.1818,-3.1818,-3.182,-3.1825,-3.1827,-3.183,-3.1834,-3.1835,-3.1838,-3.184,-3.1844,-3.1844,-3.1846,-3.1848,-3.1849,-3.185,-3.1849,-3.1849,-3.1849,-3.1853,-3.1853,-3.1853,-3.1851,-3.1851,-3.1851,-3.1853,0,-3.1815,-3.1821,-3.1823,-3.1827,-3.183,-3.1832,-3.1834,-3.1837,-3.1839,-3.1841,-3.1843,-3.1845,-3.1846,-3.1847,-3.1848,-3.185,-3.1851,-3.185,-3.1853,-3.1853,-3.1852,-3.1854,-3.1853,-3.1855,-3.1853,-3.1853,-3.1853,0,-3.1819,-3.1822,-3.1827,-3.183,-3.1832,-3.1834,-3.1837,-3.1839,-3.1842,-3.1843,-3.1845,-3.1846,-3.1849,-3.1849,-3.1852,-3.1851,-3.1852,-3.1853,-3.1853,-3.1853,-3.1853,-3.1854,-3.1855,-3.1856,-3.1854,-3.1854,-3.1854,0,-3.182,-3.1825,-3.1828,-3.183,-3.1834,-3.1836,-3.1837,-3.184,-3.1842,-3.1844,-3.1845,-3.1848,-3.185,-3.1851,-3.1853,-3.1853,-3.1856,-3.1856,-3.1857,-3.1857,-3.1857,-3.1857,-3.1859,-3.1858,-3.1858,-3.1858,-3.1858,0,-3.1822,-3.1825,-3.1829,-3.1831,-3.1834,-3.1836,-3.1839,-3.184,-3.1843,-3.1845,-3.1846,-3.1848,-3.185,-3.1852,-3.1854,-3.1856,-3.1857,-3.1857,-3.1858,-3.1857,-3.1857,-3.1858,-3.1858,-3.1858,-3.1858,-3.1858,-3.1858,0,-3.1824,-3.1826,-3.183,-3.1833,-3.1834,-3.1836,-3.1839,-3.1841,-3.1843,-3.1845,-3.1846,-3.1849,-3.1851,-3.1853,-3.1856,-3.1857,-3.1859,-3.186,-3.1858,-3.1858,-3.1859,-3.1859,-3.1862,-3.1862,-3.1861,-3.1861,-3.1861,0,-3.1825,-3.1827,-3.1831,-3.1833,-3.1835,-3.1837,-3.1839,-3.1841,-3.1843,-3.1846,-3.1847,-3.185,-3.1852,-3.1855,-3.1857,-3.186,-3.186,-3.1861,-3.186,-3.186,-3.186,-3.1859,-3.186,-3.1861,-3.1861,-3.1861,-3.1861,0,-3.1828,-3.1829,-3.1831,-3.1834,-3.1836,-3.1839,-3.1841,-3.1842,-3.1845,-3.1846,-3.1849,-3.1851,-3.1854,-3.1856,-3.1859,-3.186,-3.1861,-3.1861,-3.1861,-3.1861,-3.186,-3.186,-3.1858,-3.1861,-3.1861,-3.1861,-3.1861,-3.1861,-3.1829,-3.1831,-3.1834,-3.1836,-3.1838,-3.184,-3.1842,-3.1844,-3.1846,-3.1849,-3.185,-3.1853,-3.1855,-3.1858,-3.1859,-3.1861,-3.1861,-3.1862,-3.1862,-3.1862,-3.1862,-3.186,-3.1862,-3.1862,-3.1862,-3.1862,-3.1862,0,-3.1831,-3.1833,-3.1836,-3.1839,-3.1841,-3.1842,-3.1844,-3.1846,-3.1848,-3.185,-3.1852,-3.1855,-3.1857,-3.1859,-3.1861,-3.1862,-3.1862,-3.1862,-3.1862,-3.1863,-3.1862,-3.1861,-3.1862,-3.1862,-3.1862,-3.1862,-3.1862,-3.1862,-3.1833,-3.1836,-3.1837,-3.1841,-3.1842,-3.1845,-3.1846,-3.1848,-3.185,-3.1853,-3.1855,-3.1856,-3.1858,-3.186,-3.1862,-3.1863,-3.1863,-3.1863,-3.1864,-3.1863,-3.1863,-3.1863,-3.1862,-3.1863,-3.1863,-3.1864,-3.1864,-3.1864]}]]